Tracking 18980 objects as of 20-Feb-2018
HD Live streaming from Space Station
objects crossing your sky now

FENGYUN 1C DEB

Track FENGYUN 1C DEB now!
10-day predictions


NORAD ID: 33648
Int'l Code: 1999-025DEH
Perigee: 814.2 km
Apogee: 914.7 km
Inclination: 98.9 °
Period: 102.1 minutes
Semi major axis: 7235 km
RCS: 0.0146 m2 (small)
Launch date: May 10, 1999
Source: People's Republic of China (PRC)
Launch site: Taiyaun Space Center, China (TSC)

Note: This is SATELLITE DEBRIS
aabbcc
Your satellite tracking list
Your tracking list is empty




NASA's NSSDC Master Catalog

Two Line Element Set (TLE):
1 33648U 99025DEH 18050.31405194 -.00000015  00000-0  16268-4 0  9994
2 33648  98.8800  80.3329 0069456 341.4117  18.4519 14.10590643526896
Source of the keplerian elements: AFSPC